Location: Eschentzwiller
(47.7125°N, 7.3981°E)
Time: 02:48:49
(UTC+00:00)

CZ-2C R/B - Pass Details

Date: 27 October 2020
Orbit: 703 x 909 km, 98.1° (Epoch: 01 December)

Event Time Altitude Azimuth Distance (km) Brightness Sun altitude
Rises 16:46:27 0° 125° (SE) 3,524 6.0 -5.1°
Reaches altitude 10° 16:49:18 10° 112° (ESE) 2,575 5.2 -5.5°
Maximum altitude 16:53:47 24° 61° (ENE) 1,752 4.3 -6.3°
Drops below altitude 10° 16:58:09 10° 9° (N) 2,516 5.5 -7.0°
Sets 17:00:54 0° 357° (N) 3,426 6.3 -7.4°
